Overview Statistics Trail Chart Weather Telemetry Raw packets
 

This is the latest recevied weather packets stored in our database for station/object DK4EP-10. If no packets are shown the sender has not sent any weather packets the latest 10 day(s).

<< 1 2 3 4 5 >>
Time Temp. Humidity Pressure Rain* Wind** Luminosity Snow
1788562168 15.56° C 100% 990 hPa - - - -
1788561267 15.56° C 100% 990 hPa - - - -
1788560365 15.56° C 100% 991 hPa - - - -
1788559464 15.56° C 100% 990 hPa - - - -
1788558563 15.56° C 100% 990 hPa - - - -
1788557662 16.11° C 100% 990 hPa - - - -
1788556761 15.56° C 100% 989 hPa - - - -
1788555860 15.56° C 100% 989 hPa - - - -
1788554959 15.56° C 100% 989 hPa - - - -
1788554057 15.56° C 100% 988 hPa - - - -
1788553156 16.11° C 100% 989 hPa - - - -
1788552255 16.11° C 100% 989 hPa - - - -
1788551354 16.11° C 100% 989 hPa - - - -
1788550453 17.22° C 99% 989 hPa - - - -
1788549554 17.22° C 94% 989 hPa - - - -
1788548650 17.22° C 94% 989 hPa - - - -
1788547749 17.78° C 93% 989 hPa - - - -
1788546848 17.78° C 92% 989 hPa - - - -
1788545946 17.78° C 96% 988 hPa - - - -
1788545045 17.78° C 96% 988 hPa - - - -
1788544144 17.78° C 100% 988 hPa - - - -
1788543243 17.78° C 99% 988 hPa - - - -
1788542342 17.78° C 100% 987 hPa - - - -
1788541441 18.33° C 100% 987 hPa - - - -
1788540540 20.56° C 94% 987 hPa - - - -

* Rain since midnight (hover to see other rain measurements)
** Current wind speed in m/s (hover to see current wind gust speed)